[[{"header":{"parameterUnit":"m.s-1","parameterCategory":1,"la1":30.2991,"la2":30.254,"lo1":-89.0895,"lo2":-89.0444,"dy":0.0017,"dx":0.0017,"nx":28,"ny":28,"refTime":"2024-04-02T03:00:00:Z","depth":0,"parameterNumber":2,"parameterNumberName":"U-component_of_WINDS"},"data":[0,0,0,0,0,0,0,0,0,0,0,0,0,0,0,0,0,0,0,0,0,0,0,0,0,0,0,0,0,0,0,0,0,0,0,0,0,0,0,0,0,0,0,0,0,0,0,0,0,0,0,0,0,0,0,0,0,0,7.5731,7.5732,0,7.5873,7.5875,7.5876,7.5814,7.581,7.5807,7.5803,7.5947,7.5954,7.5961,0,0,0,0,0,0,0,0,0,0,0,0,0,7.5404,7.541,7.5731,7.5732,7.5734,7.5873,7.5875,7.5877,7.5814,7.581,7.5806,7.5802,7.5945,7.5953,7.5961,0,0,0,0,0,0,0,0,0,0,0,0,0,7.5546,7.5412,7.573,7.572,7.572,7.5873,7.5875,7.5877,7.5815,7.581,7.5805,7.58,7.5942,7.5952,7.5963,7.6133,0,0,7.5995,7.6,0,0,0,0,0,0,0,0,7.5538,7.5558,7.572,7.5721,7.5722,7.582,7.5812,7.5963,7.5816,7.5779,7.5803,7.5797,7.5909,7.5922,7.596,7.614,7.6146,7.5996,7.6003,7.6007,7.601,0,0,0,0,0,0,0,7.5528,7.5552,7.5787,7.5722,7.5723,7.5708,7.5722,7.5841,7.5872,7.5782,7.5778,7.5796,7.5908,7.595,7.5963,7.6148,7.5996,7.6005,7.6012,7.6016,7.6477,7.6483,0,0,0,0,0,0,7.5519,7.5544,7.5782,7.5791,7.5615,7.5718,7.5734,7.5794,7.587,7.5877,7.58,7.5792,7.5934,7.5951,7.5968,7.6174,7.6007,7.6017,7.6023,7.6472,7.6479,7.6485,0,0,0,0,0,0,7.5512,7.5541,7.5777,7.5667,7.5695,7.5729,7.5797,7.5799,7.5841,7.5884,7.5889,7.5837,7.5931,7.5953,7.6093,7.6178,7.6022,7.6031,7.6465,7.6474,7.6482,7.6586,0,0,0,0,0,0,7.5503,7.5538,7.5603,7.5668,7.5702,7.59,7.5802,7.5806,7.586,7.5851,7.592,7.5926,7.5928,7.6078,7.6104,7.619,7.604,7.6457,7.6469,7.6479,7.6576,7.6598,7.6617,0,0,0,0,0,7.5491,7.5626,7.5607,7.5636,7.5784,7.5905,7.5924,7.5925,7.5867,7.5933,7.5961,7.5924,7.6165,7.6093,7.6121,7.6212,7.6452,7.6465,7.6478,7.6566,7.6593,7.6616,0,0,0,0,0,0,7.5569,7.5634,7.5614,7.5774,7.5835,7.5894,7.5977,7.5953,7.6031,7.6019,7.6016,7.6032,7.6178,7.6209,7.6127,7.6382,7.6299,7.6319,7.6356,7.6383,7.6403,7.6392,7.6049,0,0,0,0,0,7.5605,7.5698,7.575,7.5887,7.5918,7.5943,7.5996,7.5992,7.6054,7.6079,7.6117,7.6178,7.6268,7.6327,7.6412,7.658,7.6595,7.6657,7.6677,7.6694,7.6711,7.6804,7.6832,7.6529,7.6528,7.6528,0,0,7.5679,7.5727,7.5786,7.5904,7.595,7.6047,7.5965,7.607,7.6142,7.6094,7.623,7.6261,7.6329,7.6485,7.6555,7.6515,7.6798,7.6711,7.6724,7.6732,7.6821,7.6849,7.6875,7.6538,7.6536,7.6535,0,0,7.5865,7.591,7.603,7.6079,7.6151,7.6167,7.6196,7.626,7.6279,7.6415,7.6382,7.6468,7.6622,7.6672,7.6718,7.6927,7.6897,7.6955,7.7062,7.7153,7.7177,7.7198,7.7274,7.7301,7.6972,7.6972,7.6972,0,7.5949,7.6094,7.6094,7.6203,7.6257,7.622,7.6341,7.6388,7.6484,7.6522,7.6476,7.667,7.6713,7.6882,7.6933,7.6971,7.7004,7.6947,7.7174,7.7195,7.7215,7.7287,7.7315,7.6979,7.6978,7.6977,7.6977,0,7.6194,7.6295,7.6383,7.6479,7.6542,7.6656,7.6674,7.6738,7.6729,7.675,7.689,7.6942,7.7037,7.7077,7.7068,7.7245,7.7218,7.7173,7.709,7.7251,7.7318,7.7346,7.6988,7.6986,7.6984,7.6982,0,0,7.6431,7.6527,7.6559,7.6603,7.6681,7.6759,7.6873,7.6968,7.7023,7.7091,7.7187,7.732,7.728,7.7332,7.733,7.741,7.7573,7.7355,7.7357,7.7394,7.7772,7.7806,7.7837,7.7554,7.7559,7.7563,7.7767,0,7.6623,7.6823,7.6828,7.7011,7.7106,7.7073,7.7172,7.7231,7.7255,7.7338,7.7364,7.7458,7.7398,7.743,7.7507,7.7537,7.7649,7.7522,7.7643,7.7647,7.7627,7.7872,7.7907,7.8097,7.7793,7.7798,7.7801,0,7.6873,7.6952,7.7145,7.7212,7.7252,7.7341,7.7429,7.751,7.7576,7.7588,7.7648,7.7634,7.7751,7.7665,7.7826,7.774,7.779,7.7812,7.782,7.7831,7.7734,7.7891,7.8157,7.8186,7.7842,7.7839,7.7836,0,7.7028,7.7181,7.7318,7.7356,7.7437,7.7501,7.7537,7.7599,7.7656,7.7734,7.7771,7.7861,7.791,7.7979,7.799,7.7926,7.8153,7.8067,7.8166,7.8166,7.8214,7.8211,7.8493,7.8247,7.8246,7.8246,7.8245,0,7.7243,7.7362,7.7388,7.7472,7.7606,7.761,7.7742,7.7774,7.783,7.7919,7.7896,7.7981,7.799,7.8078,7.8087,7.822,7.8242,7.8255,7.8256,7.8257,7.8255,7.8289,7.8276,7.8253,7.8252,7.825,7.8249,0,7.7437,7.746,7.7606,7.7672,7.7691,7.7787,7.7843,7.7923,7.7945,7.8059,7.8086,7.812,7.8222,7.824,7.836,7.8366,7.8525,7.8513,7.8503,7.8502,7.86,7.859,7.8913,7.8956,7.8681,7.8684,7.8686,0,7.7573,7.7665,7.7741,7.78,7.784,7.7935,7.7994,7.8003,7.8065,7.815,7.822,7.832,7.84,7.8565,7.86,7.8692,7.8682,7.8789,7.8695,7.8694,7.8684,7.8679,7.8688,7.8806,7.8809,7.8812,7.8814,0,7.7811,7.7818,7.7905,7.7996,7.8068,7.814,7.8208,7.8258,7.8275,7.8347,7.8452,7.8514,7.8638,7.8737,7.8829,7.8867,7.8844,7.8843,7.8871,7.8873,7.8864,7.8871,7.8552,7.8835,7.8833,7.8832,7.8831,7.883,7.7981,7.8062,7.8129,7.8226,7.8279,7.8344,7.8424,7.8456,7.8544,7.8646,7.8645,7.8761,7.8827,7.8948,7.8992,7.9082,7.9048,7.9088,7.9098,7.9108,7.9118,7.885,7.9099,7.9098,7.9098,7.9097,7.9097,0,7.8219,7.8261,7.8351,7.8448,7.8525,7.8498,7.8573,7.864,7.8741,7.8805,7.8886,7.9007,7.9104,7.9148,7.9244,7.9308,7.93,7.9333,7.9328,7.9338,7.9143,7.9109,7.9338,7.9338,7.9338,7.9338,7.9338,7.9338,7.8351,7.8487,7.8503,7.8665,7.8706,7.8819,7.8865,7.8925,7.8976,7.9113,7.9194,7.9223,7.928,7.938,7.9468,7.9479,7.9515,7.9553,7.9559,7.9376,7.9351,7.9328,7.9297,7.9561,7.9561,7.9747,7.9748,7.975]},{"header":{"parameterUnit":"m.s-1","parameterCategory":1,"la1":30.2991,"la2":30.254,"lo1":-89.0895,"lo2":-89.0444,"dy":0.0017,"dx":0.0017,"nx":28,"ny":28,"refTime":"2024-04-02T03:00:00:Z","depth":0,"parameterNumber":3,"parameterNumberName":"V-component_of_WINDS"},"data":[0,0,0,0,0,0,0,0,0,0,0,0,0,0,0,0,0,0,0,0,0,0,0,0,0,0,0,0,0,0,0,0,0,0,0,0,0,0,0,0,0,0,0,0,0,0,0,0,0,0,0,0,0,0,0,0,0,0,-6.1165,-6.1166,0,-6.1281,-6.1283,-6.1284,-6.1252,-6.1249,-6.1247,-6.1245,-6.1361,-6.1366,-6.1371,0,0,0,0,0,0,0,0,0,0,0,0,0,-6.0912,-6.0917,-6.1165,-6.1166,-6.1168,-6.1281,-6.1283,-6.1284,-6.1252,-6.1249,-6.1246,-6.1244,-6.1359,-6.1365,-6.1371,0,0,0,0,0,0,0,0,0,0,0,0,0,-6.1024,-6.0918,-6.1164,-6.1165,-6.1166,-6.1281,-6.1283,-6.1285,-6.1253,-6.1249,-6.1246,-6.1242,-6.1357,-6.1364,-6.1372,-6.1492,0,0,-6.1396,-6.14,0,0,0,0,0,0,0,0,-6.1018,-6.1034,-6.1164,-6.1165,-6.1167,-6.1248,-6.1236,-6.1354,-6.1254,-6.122,-6.1245,-6.1241,-6.1326,-6.1336,-6.1366,-6.1497,-6.1502,-6.1397,-6.1402,-6.1405,-6.1408,0,0,0,0,0,0,0,-6.101,-6.1028,-6.1211,-6.1166,-6.1168,-6.1159,-6.1171,-6.1258,-6.1291,-6.1222,-6.122,-6.1235,-6.1326,-6.1358,-6.1368,-6.1504,-6.1397,-6.1404,-6.1409,-6.1412,-6.1741,-6.1744,0,0,0,0,0,0,-6.1002,-6.1022,-6.1207,-6.1214,-6.1082,-6.1167,-6.118,-6.1226,-6.129,-6.1297,-6.1238,-6.1233,-6.1346,-6.1359,-6.1372,-6.1517,-6.1405,-6.1413,-6.1417,-6.1737,-6.1742,-6.1746,0,0,0,0,0,0,-6.0996,-6.1018,-6.1202,-6.1118,-6.1141,-6.1175,-6.1226,-6.123,-6.1262,-6.1302,-6.1307,-6.1265,-6.1344,-6.1361,-6.1463,-6.152,-6.1416,-6.1423,-6.1732,-6.1738,-6.1744,-6.1807,0,0,0,0,0,0,-6.0989,-6.1017,-6.1063,-6.1119,-6.1145,-6.1292,-6.123,-6.1235,-6.1276,-6.1271,-6.1328,-6.1334,-6.1342,-6.1451,-6.1471,-6.1529,-6.143,-6.1727,-6.1735,-6.1742,-6.18,-6.1815,-6.1827,0,0,0,0,0,-6.098,-6.1075,-6.1065,-6.1088,-6.1204,-6.1295,-6.131,-6.1319,-6.1281,-6.1327,-6.1353,-6.1332,-6.1511,-6.1462,-6.1484,-6.1546,-6.1723,-6.1733,-6.1741,-6.1794,-6.1812,-6.1827,0,0,0,0,0,0,-6.1023,-6.1082,-6.1072,-6.1188,-6.1237,-6.129,-6.1348,-6.1337,-6.1396,-6.1389,-6.1396,-6.1409,-6.1514,-6.154,-6.1484,-6.1665,-6.1612,-6.1625,-6.1644,-6.1662,-6.1675,-6.1666,-6.1436,0,0,0,0,0,-6.1046,-6.1116,-6.1164,-6.1261,-6.1287,-6.1314,-6.1354,-6.1356,-6.1407,-6.1427,-6.146,-6.1509,-6.1577,-6.1621,-6.1685,-6.1804,-6.1816,-6.1858,-6.1871,-6.1882,-6.1894,-6.196,-6.1979,-6.1775,-6.1775,-6.1775,0,0,-6.1093,-6.1135,-6.1178,-6.1271,-6.1309,-6.1382,-6.1331,-6.1409,-6.1463,-6.1438,-6.1537,-6.1564,-6.1619,-6.1731,-6.1781,-6.1755,-6.1953,-6.1893,-6.1902,-6.1908,-6.1971,-6.199,-6.2007,-6.1781,-6.178,-6.1779,0,0,-6.1217,-6.1256,-6.1342,-6.1382,-6.1442,-6.1459,-6.148,-6.1535,-6.1552,-6.1652,-6.1636,-6.1699,-6.1815,-6.1855,-6.1891,-6.2033,-6.2017,-6.2054,-6.2124,-6.2189,-6.2205,-6.2219,-6.227,-6.2288,-6.2065,-6.2066,-6.2066,0,-6.1269,-6.1378,-6.1387,-6.1468,-6.1509,-6.1493,-6.158,-6.1618,-6.1695,-6.1724,-6.1694,-6.184,-6.1876,-6.1998,-6.2033,-6.2062,-6.2086,-6.2047,-6.2202,-6.2216,-6.223,-6.2278,-6.2298,-6.207,-6.2069,-6.2069,-6.2069,0,-6.1439,-6.1515,-6.1577,-6.1654,-6.1702,-6.1786,-6.1807,-6.1855,-6.1854,-6.1875,-6.1977,-6.202,-6.2094,-6.2123,-6.2121,-6.2245,-6.2227,-6.22,-6.2146,-6.2253,-6.2299,-6.2318,-6.2076,-6.2074,-6.2073,-6.2072,0,0,-6.1591,-6.1674,-6.1696,-6.1732,-6.1797,-6.1856,-6.1939,-6.2012,-6.2053,-6.2107,-6.2177,-6.2276,-6.2252,-6.2293,-6.2297,-6.2353,-6.2464,-6.2319,-6.2321,-6.2345,-6.2603,-6.2624,-6.2645,-6.2454,-6.2458,-6.2461,-6.2599,0,-6.1721,-6.1868,-6.188,-6.2012,-6.2083,-6.207,-6.2142,-6.219,-6.2212,-6.2275,-6.2298,-6.2369,-6.2332,-6.2357,-6.2412,-6.2439,-6.2516,-6.2429,-6.2519,-6.2522,-6.2505,-6.2669,-6.269,-6.2818,-6.2617,-6.262,-6.2622,0,-6.1892,-6.1953,-6.2093,-6.2151,-6.2181,-6.2246,-6.2315,-6.2375,-6.2429,-6.2441,-6.2488,-6.2485,-6.257,-6.2514,-6.2631,-6.2572,-6.2609,-6.2628,-6.2633,-6.2642,-6.2578,-6.2682,-6.2859,-6.2879,-6.2651,-6.2648,-6.2646,0,-6.199,-6.2107,-6.2206,-6.2237,-6.2306,-6.2352,-6.2383,-6.2434,-6.2478,-6.2538,-6.2566,-6.2635,-6.2673,-6.2726,-6.2741,-6.2699,-6.2858,-6.2803,-6.2871,-6.287,-6.2904,-6.2902,-6.309,-6.2929,-6.2928,-6.2928,-6.2928,0,-6.2134,-6.222,-6.2252,-6.2313,-6.2409,-6.2422,-6.2517,-6.2545,-6.2591,-6.2657,-6.2649,-6.2711,-6.2727,-6.2792,-6.2804,-6.29,-6.2917,-6.2929,-6.2931,-6.293,-6.2929,-6.2954,-6.2945,-6.2933,-6.2932,-6.2931,-6.293,0,-6.2258,-6.2283,-6.2391,-6.2448,-6.2465,-6.2533,-6.2582,-6.2641,-6.2663,-6.2747,-6.2767,-6.2801,-6.2877,-6.2898,-6.2989,-6.2997,-6.311,-6.3104,-6.3092,-6.3092,-6.3159,-6.3152,-6.337,-6.3399,-6.3219,-6.322,-6.3222,0,-6.2349,-6.2415,-6.248,-6.2525,-6.2558,-6.2629,-6.2675,-6.269,-6.2738,-6.2806,-6.2857,-6.2932,-6.2994,-6.3116,-6.3148,-6.3218,-6.3214,-6.3285,-6.3224,-6.3221,-6.3215,-6.3211,-6.3218,-6.3297,-6.3299,-6.33,-6.3301,0,-6.2506,-6.2516,-6.2582,-6.2653,-6.2708,-6.2765,-6.2819,-6.2855,-6.2879,-6.2932,-6.3011,-6.3059,-6.3153,-6.3229,-6.33,-6.3331,-6.332,-6.3321,-6.334,-6.3339,-6.333,-6.3336,-6.3124,-6.3315,-6.3314,-6.3313,-6.3312,-6.3312,-6.2617,-6.2676,-6.2731,-6.2806,-6.2849,-6.29,-6.2959,-6.2989,-6.3055,-6.3134,-6.3139,-6.3225,-6.3279,-6.3373,-6.3408,-6.3475,-6.3454,-6.3482,-6.3489,-6.3496,-6.3501,-6.332,-6.3488,-6.3488,-6.3488,-6.3487,-6.3487,0,-6.2774,-6.281,-6.2878,-6.2956,-6.3014,-6.3001,-6.3061,-6.3111,-6.3187,-6.3239,-6.33,-6.3391,-6.3465,-6.3504,-6.3577,-6.3623,-6.362,-6.3642,-6.3638,-6.3646,-6.3516,-6.3492,-6.3643,-6.3643,-6.3643,-6.3643,-6.3643,-6.3643,-6.2863,-6.2962,-6.2979,-6.31,-6.3135,-6.322,-6.3255,-6.3303,-6.3344,-6.3447,-6.3509,-6.3534,-6.3581,-6.3658,-6.3725,-6.3734,-6.3762,-6.3786,-6.3793,-6.3671,-6.3655,-6.364,-6.3617,-6.3792,-6.3792,-6.3917,-6.3918,-6.3919]}]]